Location: �clusier
(49.9361°N, 2.7869°E)
Time: 22:25:57
(UTC+00:00)

COSMOS 2428 - Pass Details

Date: 16 June 2021
Orbit: 845 x 858 km, 70.9° (Epoch: 02 August)

Event Time Altitude Azimuth Distance (km) Brightness Sun altitude
Exits shadow 22:01:02 16° 174° (S) 2,096 4.2 -12.8°
Maximum altitude 22:05:17 44° 109° (ESE) 1,180 3.2 -13.1°
Drops below altitude 10° 22:10:41 10° 39° (NE) 2,503 5.5 -13.5°
Sets 22:13:15 0° 34° (NNE) 3,443 6.4 -13.6°
